Regional Weather Roundup
Issued by NWS New Orleans/Baton Rouge, LA

Home | Current Version | Previous Version | Text Only | Print | Product List | Glossary On
Versions: 1 2 3 4 5 6 7 8 9 10 11 12 13 14 15 16 17 18 19 20 21 22 23 24 25 26 27 28 29 30 31 32 33 34 35 36 37 38 39 40 41 42 43 44 45 46 47 48 49 50
000
ASUS44 KLIX 301610
RWRLIX
NEW ORLEANS REGIONAL WEATHER ROUNDUP
NATIONAL WEATHER SERVICE NEW ORLEANS LA
1100 AM CDT SUN AUG 30 2015

NOTE: "FAIR" INDICATES FEW OR NO CLOUDS BELOW 12,000 FEET WITH NO
      SIGNIFICANT WEATHER AND/OR OBSTRUCTIONS TO VISIBILITY.
      SKY/WX - SKY CONDITION AND SIGNIFICANT WEATHER.
      TMP - AIR TEMPERATURE.     DP    - DEWPOINT TEMPERATURE.
      RH  - RELATIVE HUMIDITY.   PRES  - PRESSURE.
      HI  - HEAT INDEX.          WCI   - WIND CHILL INDEX.

*  THESE STATIONS ARE NOT NWS OR FAA STATIONS AND ARE NOT UNDER
   NWS QUALITY CONTROL.

LAZ038-040-048-061>063-065>067-069-301700-
SOUTHEAST LOUISIANA

CITY           SKY/WX    TMP DP  RH WIND       PRES   REMARKS
N.O. AUDUBON     N/A     87  72  61 MISG        N/A
N.O. INTL ARPT MOSUNNY   86  67  52 N8        30.07R
N.O. LAKEFRONT SUNNY     85  70  60 N6        30.08R
N.O. DOWNTOWN* PTSUNNY   84  70  61 NW6       30.08R
RESERVE*         N/A     88  69  52 CALM      30.07R
SLIDELL        MOSUNNY   86  70  58 NW6       30.06S
BATON ROUGE    MOSUNNY   87  67  51 CALM      30.07R
BOOTHVILLE     SUNNY     86  67  52 NE6       30.08R
BELLE CHASSE   MOSUNNY   85  69  58 SE5       30.06R
BOGALUSA*      NOT AVBL
GALLIANO*      SUNNY     87  68  53 SW5       30.07R
NEW ROADS*       N/A     84  68  58 N3        30.07S
GONZALES*        N/A     85  68  57 CALM      30.06R
HAMMOND*       SUNNY     88  63  42 CALM      30.08S
HOUMA*         MOSUNNY   86  70  58 NE6       30.07
PORT FOURCHON* SUNNY     84  70  61 E7        30.07R

$$

MSZ070-080>082-301700-
SOUTHERN MISSISSIPPI

CITY           SKY/WX    TMP DP  RH WIND       PRES   REMARKS
MCCOMB         MOSUNNY   86  66  51 CALM      30.08R
GULFPORT       MOSUNNY   85  65  51 CALM      30.06S
BILOXI         SUNNY     87  69  55 VRB1      30.07R
PASCAGOULA     MOSUNNY   87  69  54 VRB3      30.07S
STENNIS ARPT*  MOSUNNY   82  63  51 VRB5      30.07S

$$

COASTAL OBSERVATIONS
LAKE AND NEARSHORE STATIONS

STATION/POSITION TIME  TEMP    WIND        PRES    WAVE
                       AIR SEA DIR/SP/G            HT/PER
                 (UTC) (F)     (DEG/KT/KT) (MB)    (FT/S)

OFFSHORE STATIONS

STATION/POSITION TIME  TEMP    WIND        PRES    WAVE
                       AIR SEA DIR/SP/G            HT/PER
                 (UTC) (F)     (DEG/KT/KT) (MB)    (FT/S)
64 S DAUPHIN ISL 1550   83 87  360/  4/  6 1018.3    1/ 4

$$



USA.gov is the U.S. government's official web portal to all federal, state and local government web resources and services.